Location: Decatur(IL)
(39.8400°N, 88.9550°W)
Time: 07:13:24
(UTC-05:00)

Cosmos 1953 - Visible Passes

Search period start: 22 September 2014 00:00
Search period end: 02 October 2014 00:00
Orbit: 549 x 571 km, 82.5° (Epoch: 21 September)

Date Brightness Start Highest point End Pass type
(mag) Time Alt. Az. Time Alt. Az. Time Alt. Az.
22 Sep 5.2 20:45:21 10° WSW 20:48:16 19° WNW 20:51:11 10° NNW visible
23 Sep 5.4 20:44:38 10° WSW 20:47:11 16° WNW 20:49:45 10° NNW visible
24 Sep 5.7 20:44:02 10° WSW 20:46:07 14° WNW 20:48:12 10° NW visible
25 Sep 5.9 20:43:39 10° W 20:45:03 12° WNW 20:46:26 10° NW visible
27 Sep 6.0 05:06:59 10° NE 05:08:04 11° ENE 05:09:09 10° E visible
28 Sep 5.8 05:05:04 10° NE 05:07:00 13° ENE 05:08:55 10° E visible
28 Sep 2.3 19:00:36 10° S 19:04:36 88° E 19:08:38 10° N visible
29 Sep 5.6 05:03:27 10° NE 05:05:54 15° ENE 05:08:22 10° ESE visible
30 Sep 5.3 05:01:57 10° NNE 05:04:48 18° ENE 05:07:39 10° ESE visible
01 Oct 5.0 05:00:31 10° NNE 05:03:41 21° ENE 05:06:51 10° SE visible
